TimeMDT,TemperatureF,Dew PointF,Humidity,Sea Level PressureIn,VisibilityMPH,Wind Direction,Wind SpeedMPH,Gust SpeedMPH,PrecipitationIn,Events,Conditions,WindDirDegrees,DateUTC
12:35 AM,71.6,32.0,23,29.58,10.0,South,6.9,-,N/A,,Clear,180,2013-09-26 06:35:00
12:55 AM,71.6,32.0,23,29.58,10.0,SSE,8.1,-,N/A,,Clear,150,2013-09-26 06:55:00
1:15 AM,69.8,32.0,25,29.59,10.0,SSE,8.1,-,N/A,,Clear,150,2013-09-26 07:15:00
1:35 AM,69.8,32.0,25,29.59,10.0,ESE,4.6,-,N/A,,Clear,110,2013-09-26 07:35:00
2:15 AM,64.4,32.0,30,29.60,10.0,NE,5.8,-,N/A,,Clear,40,2013-09-26 08:15:00
2:35 AM,64.4,30.2,28,29.61,10.0,NE,5.8,-,N/A,,Clear,40,2013-09-26 08:35:00
2:55 AM,64.4,32.0,30,29.61,10.0,NNE,6.9,-,N/A,,Clear,30,2013-09-26 08:55:00
3:15 AM,62.6,32.0,32,29.61,10.0,North,8.1,-,N/A,,Clear,360,2013-09-26 09:15:00
3:35 AM,62.6,32.0,32,29.61,10.0,NNE,4.6,-,N/A,,Clear,20,2013-09-26 09:35:00
3:55 AM,62.6,32.0,32,29.61,10.0,NE,4.6,-,N/A,,Clear,50,2013-09-26 09:55:00
4:15 AM,62.6,30.2,30,29.61,10.0,NNE,5.8,-,N/A,,Clear,20,2013-09-26 10:15:00
4:35 AM,62.6,32.0,32,29.61,10.0,NE,8.1,-,N/A,,Clear,40,2013-09-26 10:35:00
4:55 AM,62.6,30.2,30,29.62,10.0,NNE,6.9,-,N/A,,Clear,30,2013-09-26 10:55:00
5:15 AM,60.8,32.0,34,29.62,10.0,North,6.9,-,N/A,,Clear,10,2013-09-26 11:15:00
5:35 AM,60.8,32.0,34,29.62,10.0,NNE,3.5,-,N/A,,Clear,30,2013-09-26 11:35:00
5:55 AM,59.0,33.8,39,29.62,10.0,SSE,4.6,-,N/A,,Clear,160,2013-09-26 11:55:00
6:15 AM,55.4,33.8,44,29.62,10.0,SSE,6.9,-,N/A,,Clear,150,2013-09-26 12:15:00
6:35 AM,55.4,33.8,44,29.63,10.0,SSW,5.8,-,N/A,,Clear,210,2013-09-26 12:35:00
6:55 AM,55.4,33.8,44,29.64,10.0,East,4.6,-,N/A,,Clear,80,2013-09-26 12:55:00
7:15 AM,53.6,33.8,47,29.64,10.0,SE,5.8,-,N/A,,Clear,140,2013-09-26 13:15:00
7:35 AM,53.6,33.8,47,29.65,10.0,SSE,6.9,-,N/A,,Clear,150,2013-09-26 13:35:00
7:55 AM,55.4,33.8,44,29.66,10.0,South,4.6,-,N/A,,Clear,190,2013-09-26 13:55:00
8:15 AM,55.4,33.8,44,29.66,10.0,WNW,3.5,-,N/A,,Clear,290,2013-09-26 14:15:00
8:35 AM,57.2,35.6,44,29.66,10.0,Calm,Calm,-,N/A,,Clear,0,2013-09-26 14:35:00
8:55 AM,57.2,35.6,44,29.66,10.0,Calm,Calm,-,N/A,,Clear,0,2013-09-26 14:55:00
9:15 AM,59.0,33.8,39,29.67,10.0,Calm,Calm,-,N/A,,Clear,0,2013-09-26 15:15:00
9:35 AM,60.8,33.8,36,29.68,10.0,NW,5.8,-,N/A,,Clear,310,2013-09-26 15:35:00
9:55 AM,60.8,33.8,36,29.68,10.0,North,8.1,-,N/A,,Clear,360,2013-09-26 15:55:00
10:15 AM,62.6,33.8,34,29.68,10.0,NNW,5.8,-,N/A,,Clear,340,2013-09-26 16:15:00
10:35 AM,64.4,33.8,32,29.68,10.0,NNW,6.9,-,N/A,,Clear,340,2013-09-26 16:35:00
10:55 AM,66.2,32.0,28,29.68,10.0,NW,9.2,-,N/A,,Clear,320,2013-09-26 16:55:00
11:15 AM,66.2,30.2,26,29.68,10.0,NW,9.2,-,N/A,,Clear,310,2013-09-26 17:15:00
11:35 AM,66.2,30.2,26,29.68,10.0,WNW,8.1,-,N/A,,Clear,290,2013-09-26 17:35:00
11:55 AM,68.0,30.2,24,29.68,10.0,WNW,10.4,-,N/A,,Clear,300,2013-09-26 17:55:00
12:15 PM,69.8,28.4,21,29.68,10.0,West,9.2,-,N/A,,Clear,280,2013-09-26 18:15:00
12:35 PM,69.8,28.4,21,29.68,10.0,West,12.7,-,N/A,,Clear,280,2013-09-26 18:35:00
12:55 PM,69.8,28.4,21,29.68,10.0,SW,6.9,-,N/A,,Clear,230,2013-09-26 18:55:00
1:15 PM,69.8,28.4,21,29.67,10.0,WSW,10.4,19.6,N/A,,Clear,240,2013-09-26 19:15:00
1:35 PM,69.8,28.4,21,29.67,10.0,West,13.8,19.6,N/A,,Clear,260,2013-09-26 19:35:00
1:55 PM,69.8,26.6,20,29.67,10.0,SSW,12.7,19.6,N/A,,Clear,210,2013-09-26 19:55:00
2:15 PM,71.6,26.6,19,29.67,10.0,SW,17.3,21.9,N/A,,Clear,230,2013-09-26 20:15:00
2:35 PM,71.6,26.6,19,29.67,10.0,WSW,16.1,23.0,N/A,,Clear,240,2013-09-26 20:35:00
2:55 PM,71.6,24.8,17,29.67,10.0,WSW,13.8,18.4,N/A,,Clear,240,2013-09-26 20:55:00
3:35 PM,71.6,24.8,17,29.68,10.0,WSW,24.2,28.8,N/A,,Clear,250,2013-09-26 21:35:00
3:55 PM,71.6,23.0,16,29.69,10.0,WSW,23.0,26.5,N/A,,Clear,250,2013-09-26 21:55:00
4:15 PM,71.6,23.0,16,29.69,10.0,WSW,24.2,-,N/A,,Clear,250,2013-09-26 22:15:00
4:35 PM,71.6,24.8,17,29.70,10.0,WSW,20.7,28.8,N/A,,Clear,250,2013-09-26 22:35:00
4:55 PM,71.6,24.8,17,29.70,10.0,WSW,18.4,26.5,N/A,,Clear,250,2013-09-26 22:55:00
5:15 PM,69.8,24.8,18,29.72,10.0,WNW,20.7,29.9,N/A,,Clear,290,2013-09-26 23:15:00
5:35 PM,64.4,30.2,28,29.73,10.0,NW,20.7,28.8,N/A,,Clear,310,2013-09-26 23:35:00
5:55 PM,64.4,30.2,28,29.74,10.0,NW,19.6,25.3,N/A,,Partly Cloudy,320,2013-09-26 23:55:00
6:15 PM,64.4,30.2,28,29.76,10.0,WNW,19.6,-,N/A,,Clear,300,2013-09-27 00:15:00
6:35 PM,64.4,28.4,26,29.76,10.0,WNW,16.1,24.2,N/A,,Clear,300,2013-09-27 00:35:00
6:55 PM,62.6,30.2,30,29.77,10.0,NW,18.4,23.0,N/A,,Clear,310,2013-09-27 00:55:00
7:15 PM,62.6,30.2,30,29.78,10.0,NW,17.3,36.8,N/A,,Clear,310,2013-09-27 01:15:00
7:35 PM,60.8,30.2,31,29.79,10.0,NW,18.4,-,N/A,,Clear,310,2013-09-27 01:35:00
7:55 PM,60.8,30.2,31,29.79,10.0,WNW,16.1,-,N/A,,Clear,300,2013-09-27 01:55:00
8:15 PM,60.8,28.4,29,29.80,10.0,WNW,20.7,25.3,N/A,,Clear,300,2013-09-27 02:15:00
8:55 PM,60.8,28.4,29,29.83,10.0,WNW,15.0,-,N/A,,Partly Cloudy,300,2013-09-27 02:55:00
9:15 PM,59.0,28.4,31,29.83,10.0,West,4.6,-,N/A,,Clear,280,2013-09-27 03:15:00
9:35 PM,59.0,28.4,31,29.83,10.0,West,4.6,-,N/A,,Clear,260,2013-09-27 03:35:00
9:55 PM,60.8,28.4,29,29.84,10.0,West,5.8,-,N/A,,Clear,260,2013-09-27 03:55:00
10:15 PM,60.8,28.4,29,29.84,10.0,WSW,5.8,-,N/A,,Clear,240,2013-09-27 04:15:00
10:35 PM,59.0,28.4,31,29.85,10.0,West,6.9,-,N/A,,Clear,260,2013-09-27 04:35:00
10:55 PM,59.0,28.4,31,29.85,10.0,West,9.2,-,N/A,,Clear,280,2013-09-27 04:55:00
11:15 PM,59.0,28.4,31,29.85,10.0,West,11.5,-,N/A,,Clear,280,2013-09-27 05:15:00
11:35 PM,57.2,28.4,33,29.86,10.0,WNW,8.1,-,N/A,,Clear,290,2013-09-27 05:35:00
11:55 PM,57.2,28.4,33,29.86,10.0,West,9.2,-,N/A,,Clear,280,2013-09-27 05:55:00